Location: Pitton
(51.0667°N, 1.7000°W)
Time: 07:09:18
(UTC+00:00)

NOSS 3-4 (C) - Pass Details

Date: 17 September 2019
Orbit: 913 x 1299 km, 63.4° (Epoch: 21 September)

Event Time Altitude Azimuth Distance (km) Brightness Sun altitude
Rises 18:41:23 0° 313° (NW) 3,763 7.6 -4.6°
Reaches altitude 10° 18:43:56 10° 317° (NW) 2,860 6.9 -5.0°
Maximum altitude 18:50:42 64° 39° (NE) 1,234 4.0 -6.0°
Drops below altitude 10° 18:58:08 10° 120° (ESE) 3,131 5.5 -7.2°
Enters shadow 18:59:06 - 122° (ESE) 3,470 5.8 -7.3°
